Regional Weather Roundup
Issued by NWS

Home | Current Version | Previous Version | Graphics & Text | Print | Product List | Glossary On
Versions: 1 2 3 4 5 6 7 8 9 10 11 12 13 14 15 16 17 18 19 20 21 22 23 24 25 26 27 28 29 30 31 32 33 34 35 36 37 38 39 40 41 42 43 44 45 46 47 48 49 50
000
ASUS43 KDMX 100501
RWRIA

WEATHER ROUNDUP FOR IOWA
NATIONAL WEATHER SERVICE DES MOINES IA
1100 PM CST FRI DEC 09 2016

NOTE: "FAIR" INDICATES FEW OR NO CLOUDS BELOW 12,000 FEET WITH NO
SIGNIFICANT WEATHER AND/OR OBSTRUCTIONS TO VISIBILITY.

* - THESE STATIONS ARE NOT NWS STATIONS...THUS NOT UNDER NWS
QUALITY CONTROL.  THEY ALSO DO NOT REPORT WEATHER SUCH
AS PRECIPITATION OR FOG.

IAZ001>003-012>014-020>022-031>034-043>046-100600-
   NORTHWEST IOWA

CITY           SKY/WX    TMP DP  RH WIND       PRES   REMARKS
CARROLL *      CLOUDY    19  12  73 CALM      30.49S
CHEROKEE *     LGT SNOW  17  13  85 CALM      30.50R
DENISON *      CLOUDY    19  12  73 CALM      30.47S
LE MARS *      CLOUDY    18  12  79 CALM      30.51S
ORANGE CITY *  LGT SNOW  16  14  93 CALM      30.48R
SHELDON *      FLURRIES  14  14 100 N5        30.47R WCI   6
SIOUX CITY     FLURRIES  20  11  68 E3        30.51R
SPENCER        LGT SNOW  15  12  88 W9        30.49R FOG     WCI   3
STORM LAKE *   CLOUDY    14  10  85 CALM      30.47S
$$

IAZ055>058-069>071-079>083-090>094-100600-
   SOUTHWEST IOWA

CITY           SKY/WX    TMP DP  RH WIND       PRES   REMARKS
ATLANTIC *     CLOUDY    21  12  68 CALM      30.49F
AUDUBON *      CLOUDY    19  12  73 CALM      30.48F
CLARINDA *     CLOUDY    23  14  68 CALM      30.52S
COUNCIL BLFS * CLOUDY    21  14  73 SE6       30.47F WCI  14
CRESTON *      CLOUDY    21  14  73 CALM      30.50F
HARLAN  *      CLOUDY    21  14  73 CALM      30.52S
LAMONI         CLOUDY    22  12  65 SE3       30.50S
RED OAK *      CLOUDY    23  14  68 SE5       30.50S WCI  17
SHENANDOAH *   CLOUDY    23  16  74 SE6       30.50F WCI  16
$$

IAZ047>049-059>061-072>074-084-100600-
   CENTRAL IOWA

CITY           SKY/WX    TMP DP  RH WIND       PRES   REMARKS
AMES           CLOUDY    20  13  74 W3        30.52S
ANKENY *       CLOUDY    21  10  63 W5        30.54S WCI  15
BOONE *        CLOUDY    19  10  68 CALM      30.49F
CHARITON *     CLOUDY    21  14  73 CALM      30.51F
DES MOINES     CLOUDY    22  13  68 SW6       30.52S WCI  14
GRINNELL*      CLOUDY    20  14  77 CALM      30.53R
KNOXVILLE *    CLOUDY    21  10  63 W5        30.52R WCI  15
MARSHALLTOWN   CLOUDY    20  14  77 W5        30.51R WCI  13
NEWTON *       CLOUDY    21  14  73 CALM      30.52R
PELLA *        CLOUDY    23  12  62 W5        30.54S WCI  16
PERRY *          N/A     21  16  79 CALM      30.51F
$$

IAZ004>006-015-016-023>025-035-036-100600-
   NORTH CENTRAL IOWA

CITY           SKY/WX    TMP DP  RH WIND       PRES   REMARKS
ALGONA *       LGT SNOW  18  14  86 NW5       30.48S WCI  11
CLARION *      CLOUDY    19  12  73 W6        30.49F WCI  11
ESTHERVILLE    LGT SNOW  12   9  87 N6        30.48S FOG     WCI   3
FORT DODGE *   CLOUDY    19  10  68 W5        30.51S WCI  13
MASON CITY     FLURRIES  17  12  80 W6        30.49S WCI   9
WEBSTER CITY * CLOUDY    19  14  79 CALM      30.48F
IOWA FALLS *   CLOUDY    20  14  77 W5        30.51S WCI  14
$$

IAZ007>011-017>019-026>030-037>042-050>054-066-100600-
   NORTHEAST IOWA

CITY           SKY/WX    TMP DP  RH WIND       PRES   REMARKS
CEDAR RAPIDS   CLOUDY    17  15  92 SW5       30.52R WCI  10
CHARLES CITY * FLURRIES  16  14  93 W5        30.50R WCI   9
CLINTON *      CLOUDY    16  13  88 W6        30.54R WCI   7
DECORAH *      LGT SNOW  16  14  93 CALM      30.47S
DUBUQUE        CLOUDY    15  11  83 W6        30.49S WCI   6
MONTICELLO *   CLOUDY    18  12  79 CALM      30.51S
OELWEIN *      CLOUDY    18  14  86 W5        30.50R WCI  11
WATERLOO       CLOUDY    19  13  77 W6        30.51R WCI  11
$$

IAZ064-065-067-068-078-100600-
   EAST CENTRAL IOWA

CITY           SKY/WX    TMP DP  RH WIND       PRES   REMARKS
DAVENPORT      MOCLDY    18  13  80 W5        30.54S WCI  11
IOWA CITY      CLOUDY    19  13  77 CALM      30.55S
MUSCATINE *    CLOUDY    21  16  79 CALM      30.56S
QUAD CITIES    MOCLDY    20  13  74 SW3       30.54S
$$

IAZ062-063-075>077-085>089-095>099-100600-
   SOUTHEAST IOWA

CITY           SKY/WX    TMP DP  RH WIND       PRES   REMARKS
BURLINGTON     CLOUDY    21  15  78 CALM      30.55S
FAIRFIELD *    CLOUDY    21  12  68 CALM      30.54R
FORT MADISON * CLOUDY    21  14  73 CALM      30.56R
KEOKUK *       CLOUDY    23  16  74 CALM      30.55S
OSKALOOSA *    CLOUDY    20  15  79 CALM      30.54R
CENTERVILLE *    N/A     23  16  74 CALM      30.54S
OTTUMWA        CLOUDY    21  12  68 SW3       30.53R
WASHINGTON *   CLOUDY    21  16  79 SW5       30.56R WCI  15
$$

ABBREVIATIONS USED IN REMARKS
   TC - TEMPERATURES IN CELSIUS
  WCI - WIND CHILL INDEX
   HX - HEAT INDEX
  VSB - VISIBILITY
$$





USA.gov is the U.S. government's official web portal to all federal, state and local government web resources and services.